Energiesparende Spülmaschinen im Vergleich

Hersteller Modell Kaufpreis (€) Energieverbrauch (kWh/100 Zyklen) Stromkosten (€/100 Zyklen) CO₂ durch Betrieb (kg CO₂e/100 Zyklen) Energieeffizienzklasse Bauart Design Geräusch (dBA) Breite (cm) Testergebnis Stiftung Warentest Wasserkosten (€/Jahr) Fassungsvermögen (Anzahl Maßgedecke) Programmdauerabsteigend sortieren
Gorenje GU66160X 470 € 24 41 C Unterbau Edelstahl 42 59,6 4 16
4002516326205 Miele G 7165 SCVi XXL AutoDos 1.349 € 20 35 B Vollintegrierbar Edelstahl 43 59,8 3 14 3:19
4002516326199 Miele G 7160 SCVi AutoDos 1.349 € 20 35 B Vollintegrierbar Edelstahl 43 59,8 3 14 3:19
ETTREF0400302 NN NichtempfehlenswertesProdukt 523 € 27 50 G Vollintegrierbar 48 44,8 - 0 9 3:20
3838782468308 Gorenje GS671C60W 511 € 24 41 C Standgerät weiß 42 60,0 4 16 3:25
3838782474101 Gorenje GS671C60X 549 € 24 41 C Standgerät Edelstahl 42 60,0 4 16 3:25
3838782468254 Gorenje GV661C60 451 € 24 41 C Vollintegrierbar 44 59,6 4 16 3:25
4242006297428 Gaggenau DF264100 1.190 € 19 32 C Vollintegrierbar 44 44,8 4 10 3:30
4242003879771 Siemens SR25ZW11ME 681 € 19 32 C Standgerät Weiß 43 45,0 4 10 3:30
4242005221271 Bosch SPI6ZMS35E 679 € 19 32 C Integrierbar Edelstahl 43 44,8 4 10 3:30
4242003879795 Siemens SR45ZS11ME 711 € 19 32 C Unterbau Edelstahl 43 44,8 4 10 3:30
4242005202072 Bosch SPS6ZMW35E 687 € 19 32 C Standgerät Weiß 43 45,0 4 10 3:30
4242003879481 Siemens SR55ZS11ME 711 € 19 32 C Integrierbar Edelstahl 43 44,8 4 10 3:30
ETTREF0400301 NN NichtempfehlenswertesProdukt 349 € 34 63 F Stand weiß 52 60,0 - 0 12 3:30
4242005221288 Bosch SPU6ZMS35E 701 € 19 32 C Unterbau Edelstahl 43 44,8 4 10 3:30
4242003862100 Siemens SR65ZX23ME 931 € 19 32 C Vollintegrierbar 43 44,8 4 10 3:30
4242005215058 Bosch SPV6ZMX23E 701 € 19 32 C Vollintegrierbar 43 44,8 4 10 3:30
4242004247807 Neff S857ZMX09E 772 € 19 32 C Vollintegrierbar 43 44,8 4 10 3:30
4242003865309 Siemens SX65ZX49CE 850 € 24 41 C Vollintegrierbar 42 59,8 4 14 3:30
4242005173747 Bosch SMI6ZCS49E 757 € 24 41 C Integrierbar Edelstahl 42 59,8 4 14 3:55
4002516375258 Miele G 7323 SCU AutoDos E 1.299 € 24 40 C Unterbau Edelstahl CleanSteel 42 59,8 4 14 3:55
4242003865330 Siemens SN75ZX49CE 828 € 24 41 C Vollintegrierbar 42 59,8 4 14 3:55
4242005185399 Bosch SMS 6 ZCW 00 E 687 € 24 41 C Standgerät Weiß 44 60,0 - 4 14 3:55
4242003866290 Siemens SX87YX01CE 964 € 21 35 B Vollintegrierbar 43 59,8 4 14 3:55
4002516061571 Miele G 7310 SCi AutoDos 1.229 € 24 40 C Integrierbar Brillantweiß 42 59,8 - 4 14 3:55
4002516061663 Miele G 7910 SCi AutoDos 2.374 € 24 40 C Integrierbar Obsidianschwarz 41 59,8 - 4 14 3:55
4242003875827 Siemens SN 45 ZS0 3AE 693 € 23 40 C Integrierbar Edelstahl 44 59,8 - 4 13 3:55
4242005173839 Bosch SMV6ZDX49E 870 € 24 40 C Vollintegrierbar 42 59,8 4 13 3:55
4002516061496 Miele G 7515 SCi XXL 1.859 € 24 40 C Integrierbar schwarz 40 59,8 4 14 3:55
4242003865644 Siemens SX75ZX49CE 847 € 24 41 C Vollintegrierbar 42 59,8 4 14 3:55
4242003865897 Siemens SN 65 ZX 03 AE 726 € 23 40 C Vollintegrierbar 44 59,8 - 4 13 3:55
4242005187300 Bosch SMI6ZDS49E 880 € 24 40 C Integrierbar Edelstahl 42 59,8 4 13 3:55
4242006297053 Gaggenau DF480100 2.195 € 23 40 C Vollintegrierbar 42 59,8 4 12 3:55
4002516061502 Miele G 7360 SCVi AutoDos 1.409 € 24 40 C Vollintegrierbar CleanSteel/Obsidianschwarz 42 59,8 - 4 14 3:55
4242004244738 Neff S147ZCS35E 809 € 24 41 C Integrierbar Edelstahl 42 59,8 4 14 3:55
4242005314645 Bosch SMI8YCS03E 1.259 € 21 35 B Vollintegrierbar Edelstahl 43 59,8 4 14 3:55
4002516061601 Miele G 7310 SCU 1.189 € 24 40 C Unterbau 42 60,0 4 14 3:55
4002516061670 Miele G 7915 SCi XXL AutoDos 2.421 € 24 40 C Integrierbar Obsidianschwarz 41 59,8 - 4 14 3:55
4242003864043 Siemens SN25ZI49CE 840 € 24 41 C Standgerät Edelstahl, lackiert 42 60,0 4 14 3:55
4242003859988 Siemens SN27YI01CE 903 € 21 35 B Standgerät Edelstahl, lackiert 43 60,0 4 14 3:55

Seiten

XLS

Stand Tabelle: November 2021

Kaufpreis = Median, ermittelt von idealo, Aktuelle Preise unter idealo.de

Jährliche Gesamtkosten: Die Anschaffungskosten werden auf die Lebensdauer umgerechnet. Geschirrspülmaschinen halten in der Regel 12,5 Jahre. Eine nachgewiesene längere Lebensdauer wurde berücksichtigt. Dies ist bei Geräten der Firma Miele der Fall, die eine Lebensdauer von 20 Jahren haben. Mit berechnet wurden die jährlichen Kosten für den Verbrauch von Strom, Wasser und Reinigungsmitteln (angenommener Preis: Strom 0,3189 €/kWh (inkl. Grundpreis, Quelle: BDEW- Strompreisanalyse Februar 1/2021 des Bundesverband der Energie- und Wasserwirtschaft e.V.), Wasser 4,04 Euro pro m³, Reiniger 11 Cent pro Spülgang).

Jährliche Emissionen an CO2-Äquivalenten: Mit berechnet wurde die Herstellung bezogen auf die Lebensdauer und der Stromverbrauch auf der Basis von 100 Spülgängen. Für eine Kilowattstunde Strom werden in Deutschland klimarelevante Emissionen in Höhe von durchschnittlich 545 g CO2-Äquivalenten frei (Quelle: EcoInvent 3.7.1).

 

 

Spülen Sie von Hand, verbrauchen Sie unnötig viel Energie, Wasser und Geld. Die Anschaffung einer Spülmaschine macht also durchaus Sinn. Wir helfen Ihnen ein Gerät zu finden, das sparsam ist, zu Ihnen passt und Ihr Geschirr blitzeblank erstrahlen lässt.

Wenn Sie Ihre Spülmaschine richtig beladen und bedienen, sparen Sie Energie, Geld und Nerven. EcoTopTen zeigt Ihnen wie das geht.

Kompakte Infos zum Energieverbrauch von Geschirrspülmaschinen.